Location: Newark
(44.2003°N, 3.2583°E)
Time: 03:11:16
(UTC+00:00)

Altair - Pass Details

Date: 01 November 2019
Orbit: 1502 x 1682 km, 47.2° (Epoch: 13 November)

Event Time Altitude Azimuth Distance (km) Brightness Sun altitude
Rises 05:21:24 0° 186° (S) 4,621 10.1 -11.6°
Reaches altitude 10° 05:25:24 10° 171° (S) 3,652 9.7 -10.9°
Maximum altitude 05:31:37 21° 127° (SE) 2,934 9.9 -9.8°
Drops below altitude 10° 05:37:55 10° 84° (E) 3,726 10.9 -8.7°
Sets 05:42:01 0° 69° (ENE) 4,743 11.1 -7.9°
